Location: Chervonnoye
(48.6000°N, 34.4000°E)
Time: 21:09:39
(UTC+00:00)

Tiangong - Visible Passes

Search period start: 21 September 2021 00:00
Search period end: 01 October 2021 00:00
Orbit: 380 x 385 km, 41.5° (Epoch: 20 September)

Date Brightness Start Highest point End Pass type
(mag) Time Alt. Az. Time Alt. Az. Time Alt. Az.
28 Sep 3.7 02:04:45 10° S 02:05:55 12° SSE 02:07:05 10° SE visible
29 Sep 3.2 02:39:46 10° SW 02:42:05 19° S 02:44:25 10° ESE visible
30 Sep 3.4 01:42:25 15° SSE 01:42:25 15° SSE 01:44:07 10° SE visible
